Find Starlink 30088

NORAD ID: 57462 Int'l Des: 2023-107 Owner: SPXS Country: US Constellation: starlink operational
LEOCIRCULAR

現在のビュー

3D地球を読み込み中...

About Starlink 30088

Starlink 30088 (NORAD 57462) is a starlink constellation satellite (v2 mini) launched Jul 28, 2023 by SPXS of US. It operates in LEO, CIRCULAR orbit with a mass of 730.00 kg.

次回通過

Passes for default location (London). Set your location on the main map for personalized predictions.

高度履歴

Loading altitude history...

軌道要素

1 57462U 23107F 26237.90706968 -.00000670 00000-0 -14820-4 0 9996
2 57462 43.0013 100.7155 0001432 259.7916 100.2774 15.27569947171022
Epoch: Aug 25, 2026 • Age: 6 hours

現在のステータス

高度 490.2 km
遠地点 / 近地点 N/A
速度 7.62 km/s
衛星直下点 -29.10°S, 30.72°E
打ち上げ日 Jul 28, 2023
運用期間 3 years
タイプ internet

技術仕様

分類 Payload
質量 730.00 kg
乾燥質量 700.00 kg
総質量 730.00 kg
長さ 0.30 m
直径 4.10 m
スパン 29.00 m
形状 Box + pan
製造者 SPXS
バスタイプ Starlink V2M
フェーズステータス In Orbit
所有者/国 SPXS/US

Most Searched